GW7050 Weather Reports


Display with metric or nautical units.
time (UTC)temp
F
wind
direction
speed
MPH
gust
MPH
rain 1hr
in
rain 24hr
in
rain mn
in
humidity
%
barometer
mb
20260504044251 64 137 2.0 6.0 0.00 0.00 0.00 73 1019.1
20260504043748 64 116 4.0 7.0 0.00 0.00 0.00 73 1019.1
20260504043245 64 160 2.0 7.0 0.00 0.00 0.00 74 1019.1
20260504042743 64 137 2.0 7.0 0.00 0.00 0.00 73 1019.1
20260504042239 64 169 3.0 6.0 0.00 0.00 0.00 74 1019.2
20260504041736 64 138 2.0 4.0 0.00 0.00 0.00 74 1019.2
20260504041232 64 180 2.0 6.0 0.00 0.00 0.00 74 1019.1
20260504040728 64 105 1.0 7.0 0.00 0.00 0.00 74 1019.1
20260504040225 64 209 1.0 3.0 0.00 0.00 0.00 73 1019.0
20260504035721 64 130 5.0 7.0 0.00 0.00 0.00 73 1018.9
20260504035219 64 119 1.0 3.0 0.00 0.00 0.00 72 1019.3
20260504034716 64 129 1.0 6.0 0.00 0.00 0.00 72 1019.2
20260504034213 64 131 1.0 6.0 0.00 0.00 0.00 71 1019.0
20260504033711 64 124 2.0 6.0 0.00 0.00 0.00 71 1018.9
20260504033208 65 146 2.0 4.0 0.00 0.00 0.00 71 1018.9
20260504032705 65 167 4.0 4.0 0.00 0.00 0.00 71 1018.9
20260504032202 65 135 2.0 4.0 0.00 0.00 0.00 70 1018.9
20260504031659 65 141 2.0 6.0 0.00 0.00 0.00 70 1019.0
20260504031155 65 206 2.0 4.0 0.00 0.00 0.00 71 1019.0
20260504030652 65 160 2.0 4.0 0.00 0.00 0.00 71 1019.0
20260504030149 65 146 1.0 2.0 0.00 0.00 0.00 70 1019.0
20260504025646 65 129 1.0 2.0 0.00 0.00 0.00 69 1019.0
20260504025142 66 162 2.0 2.0 0.00 0.00 0.00 69 1019.1
20260504024640 66 138 1.0 2.0 0.00 0.00 0.00 68 1018.9
20260504024136 66 150 2.0 4.0 0.00 0.00 0.00 66 1018.9
20260504023633 67 212 2.0 4.0 0.00 0.00 0.00 66 1018.7
20260504023129 67 161 4.0 6.0 0.00 0.00 0.00 66 1018.5
20260504022625 67 140 4.0 7.0 0.00 0.00 0.00 65 1018.3
20260504022121 67 210 3.0 8.0 0.00 0.00 0.00 64 1018.4
20260504021620 68 208 4.0 7.0 0.00 0.00 0.00 64 1018.2
20260504021116 68 175 6.0 8.0 0.00 0.00 0.00 64 1018.5
20260504020613 68 132 4.0 9.0 0.00 0.00 0.00 65 1018.3
20260504020109 68 123 3.0 7.0 0.00 0.00 0.00 65 1018.3
20260504015606 68 104 2.0 4.0 0.00 0.00 0.00 65 1018.3
20260504015101 68 130 2.0 4.0 0.00 0.00 0.00 66 1018.3
20260504014558 68 124 4.0 7.0 0.00 0.00 0.00 66 1018.5
20260504014055 68 159 1.0 3.0 0.00 0.00 0.00 66 1018.3
20260504013553 69 199 2.0 8.0 0.00 0.00 0.00 65 1018.1
20260504013049 69 177 3.0 4.0 0.00 0.00 0.00 65 1018.2
20260504012547 69 180 4.0 6.0 0.00 0.00 0.00 65 1018.1
20260504012045 69 171 2.0 2.0 0.00 0.00 0.00 65 1018.0
20260504011541 69 118 4.0 7.0 0.00 0.00 0.00 63 1018.2
20260504011037 70 124 2.0 7.0 0.00 0.00 0.00 63 1017.9
20260504010533 70 179 2.0 6.0 0.00 0.00 0.00 63 1017.8
20260504010029 70 154 2.0 4.0 0.00 0.00 0.00 63 1018.0
20260504005526 71 66 1.0 9.0 0.00 0.00 0.00 62 1017.9
20260504005024 71 144 2.0 7.0 0.00 0.00 0.00 62 1018.1
20260504004521 72 158 1.0 4.0 0.00 0.00 0.00 60 1018.1
20260504004018 73 156 1.0 3.0 0.00 0.00 0.00 57 1018.1
20260504003514 73 139 5.0 6.0 0.00 0.00 0.00 50 1018.1
20260504003011 74 143 1.0 3.0 0.00 0.00 0.00 49 1018.1
20260504002508 74 128 2.0 6.0 0.00 0.00 0.00 46 1018.2
20260504002006 75 127 4.0 4.0 0.00 0.00 0.00 45 1017.9
20260504001503 75 127 3.0 6.0 0.00 0.00 0.00 45 1018.1
20260504000959 75 165 2.0 4.0 0.00 0.00 0.00 44 1018.1
20260504000457 75 124 2.0 6.0 0.00 0.00 0.00 44 1018.1
20260503235954 75 133 2.0 3.0 0.00 0.00 0.00 45 1018.2
20260503235451 75 119 6.0 8.0 0.00 0.00 0.00 42 1018.3
20260503234948 75 97 1.0 4.0 0.00 0.00 0.00 44 1018.2
20260503234446 76 144 4.0 4.0 0.00 0.00 0.00 43 1018.3
20260503233944 76 136 2.0 3.0 0.00 0.00 0.00 43 1018.1
20260503233440 76 169 2.0 6.0 0.00 0.00 0.00 41 1018.1
20260503232936 76 126 3.0 7.0 0.00 0.00 0.00 43 1018.1
20260503232433 76 104 5.0 8.0 0.00 0.00 0.00 42 1018.3
20260503231932 76 145 4.0 7.0 0.00 0.00 0.00 41 1018.3
20260503231429 76 128 1.0 4.0 0.00 0.00 0.00 41 1018.5
20260503230925 77 125 6.0 8.0 0.00 0.00 0.00 38 1018.5
20260503230421 78 144 2.0 3.0 0.00 0.00 0.00 38 1018.6
20260503225920 77 161 1.0 2.0 0.00 0.00 0.00 43 1018.3
20260503225416 77 167 7.0 9.0 0.00 0.00 0.00 40 1018.4
20260503224912 77 158 4.0 7.0 0.00 0.00 0.00 43 1018.4
20260503224409 77 127 5.0 7.0 0.00 0.00 0.00 37 1018.6
20260503223906 77 146 5.0 9.0 0.00 0.00 0.00 42 1018.8
20260503223404 77 106 5.0 11.0 0.00 0.00 0.00 39 1018.8
20260503222859 77 141 7.0 9.0 0.00 0.00 0.00 40 1018.9
20260503222358 77 157 4.0 6.0 0.00 0.00 0.00 42 1018.9
20260503221856 77 147 7.0 13.0 0.00 0.00 0.00 39 1018.8
20260503221354 77 99 4.0 7.0 0.00 0.00 0.00 40 1018.9
20260503220850 78 137 6.0 8.0 0.00 0.00 0.00 40 1018.9
20260503220347 78 147 3.0 4.0 0.00 0.00 0.00 41 1019.0
20260503215844 78 145 6.0 7.0 0.00 0.00 0.00 41 1019.2
20260503215341 78 110 6.0 8.0 0.00 0.00 0.00 40 1019.4
20260503214838 77 147 3.0 3.0 0.00 0.00 0.00 38 1019.3
20260503214336 77 142 3.0 8.0 0.00 0.00 0.00 38 1019.4
20260503213833 78 217 5.0 9.0 0.00 0.00 0.00 40 1019.4
20260503213331 78 142 2.0 14.0 0.00 0.00 0.00 43 1019.5
20260503212827 78 137 5.0 8.0 0.00 0.00 0.00 38 1019.6
20260503212325 78 154 1.0 6.0 0.00 0.00 0.00 40 1019.8
20260503211822 78 126 2.0 6.0 0.00 0.00 0.00 38 1019.7
20260503211319 77 153 3.0 6.0 0.00 0.00 0.00 40 1019.9
20260503210819 78 98 2.0 6.0 0.00 0.00 0.00 39 1020.1
20260503210317 78 117 4.0 9.0 0.00 0.00 0.00 40 1020.2
20260503205811 78 123 4.0 6.0 0.00 0.00 0.00 39 1020.1
20260503205308 78 146 4.0 6.0 0.00 0.00 0.00 46 1020.2
20260503204805 78 143 2.0 9.0 0.00 0.00 0.00 37 1020.3
20260503204303 78 109 2.0 4.0 0.00 0.00 0.00 39 1020.1
20260503203800 78 155 4.0 7.0 0.00 0.00 0.00 38 1020.4
20260503203257 78 113 4.0 7.0 0.00 0.00 0.00 38 1020.6
20260503202754 79 142 4.0 4.0 0.00 0.00 0.00 44 1020.6
20260503202252 78 103 1.0 2.0 0.00 0.00 0.00 45 1020.7
20260503201749 78 129 2.0 7.0 0.00 0.00 0.00 41 1021.0
20260503201247 78 78 7.0 9.0 0.00 0.00 0.00 43 1020.9
20260503200743 78 98 5.0 7.0 0.00 0.00 0.00 41 1021.0
20260503200239 78 176 3.0 4.0 0.00 0.00 0.00 40 1021.0
20260503195736 77 149 4.0 8.0 0.00 0.00 0.00 36 1021.0
20260503195233 78 123 8.0 10.0 0.00 0.00 0.00 38 1021.3
20260503194731 78 121 6.0 10.0 0.00 0.00 0.00 41 1020.9
20260503194226 78 157 3.0 9.0 0.00 0.00 0.00 45 1021.2
20260503193723 79 97 6.0 7.0 0.00 0.00 0.00 38 1021.3
20260503193219 78 341 2.0 4.0 0.00 0.00 0.00 42 1021.4
20260503192715 78 98 2.0 4.0 0.00 0.00 0.00 40 1021.4
20260503192210 78 138 5.0 10.0 0.00 0.00 0.00 37 1021.6
20260503191707 78 239 3.0 6.0 0.00 0.00 0.00 42 1021.5
20260503191204 78 147 2.0 10.0 0.00 0.00 0.00 40 1021.7
20260503190701 77 144 2.0 6.0 0.00 0.00 0.00 39 1021.7
20260503190158 78 118 8.0 10.0 0.00 0.00 0.00 39 1021.8
20260503185655 78 106 5.0 8.0 0.00 0.00 0.00 40 1021.8
20260503185150 78 93 5.0 8.0 0.00 0.00 0.00 34 1022.0
20260503184645 79 130 4.0 7.0 0.00 0.00 0.00 43 1022.0
20260503184142 78 136 2.0 4.0 0.00 0.00 0.00 42 1022.1
20260503183638 79 275 2.0 3.0 0.00 0.00 0.00 38 1022.1
20260503183136 79 241 2.0 3.0 0.00 0.00 0.00 38 1022.1
20260503182634 78 116 1.0 4.0 0.00 0.00 0.00 39 1022.4
20260503182132 79 122 3.0 6.0 0.00 0.00 0.00 39 1022.3
20260503181629 79 96 1.0 3.0 0.00 0.00 0.00 41 1022.5
20260503181125 78 189 1.0 2.0 0.00 0.00 0.00 43 1022.5
20260503180622 78 215 4.0 7.0 0.00 0.00 0.00 47 1022.6
20260503180120 78 122 1.0 3.0 0.00 0.00 0.00 41 1022.7
20260503175617 78 123 3.0 7.0 0.00 0.00 0.00 40 1022.7
20260503175114 79 128 0.0 3.0 0.00 0.00 0.00 43 1022.8
20260503174611 78 128 1.0 4.0 0.00 0.00 0.00 43 1022.9
20260503174108 77 220 3.0 4.0 0.00 0.00 0.00 46 1022.8
20260503173602 78 207 2.0 2.0 0.00 0.00 0.00 41 1023.2
20260503173059 77 225 1.0 3.0 0.00 0.00 0.00 48 1023.3
20260503172556 77 227 3.0 4.0 0.00 0.00 0.00 47 1023.4
20260503172054 77 134 2.0 3.0 0.00 0.00 0.00 45 1023.5
20260503171550 77 140 3.0 4.0 0.00 0.00 0.00 47 1023.3
20260503171047 78 237 3.0 4.0 0.00 0.00 0.00 49 1023.5
20260503170543 77 265 1.0 2.0 0.00 0.00 0.00 46 1023.6
20260503150936 73 189 2.0 3.0 0.00 0.00 0.00 60 1023.7
20260503150433 73 161 1.0 3.0 0.00 0.00 0.00 58 1023.6
20260503131326 59 105 0.0 0.0 0.00 0.00 0.00 98 1023.3
20260503130823 58 105 0.0 0.0 0.00 0.00 0.00 98 1023.2
20260503130321 58 105 0.0 0.0 0.00 0.00 0.00 97 1023.4
20260503110714 51 106 0.0 0.0 0.00 0.00 0.00 97 1021.9
20260503110211 52 106 0.0 0.0 0.00 0.00 0.00 97 1021.8
20260503100138 52 106 0.0 0.0 0.00 0.00 0.00 96 1021.9
20260503081532 53 105 0.0 0.0 0.00 0.00 0.00 96 1021.7
20260503081030 54 106 0.0 0.0 0.00 0.00 0.00 95 1021.9
20260503080526 54 106 0.0 0.0 0.00 0.00 0.00 95 1021.6
20260503072500 55 106 0.0 0.0 0.00 0.00 0.00 95 1022.0
20260503071956 55 106 0.0 0.0 0.00 0.00 0.00 95 1022.0
20260503071453 55 106 0.0 0.0 0.00 0.00 0.00 95 1022.1
20260503070949 55 105 0.0 0.0 0.00 0.00 0.00 95 1022.1
20260503070447 55 105 0.0 0.0 0.00 0.00 0.00 95 1022.0
20260503054900 56 105 0.0 0.0 0.00 0.00 0.00 93 1022.2
20260503054356 56 105 0.0 0.0 0.00 0.00 0.00 93 1022.0
20260503053854 56 105 0.0 0.0 0.00 0.00 0.00 93 1021.9
20260503053352 56 105 0.0 0.0 0.00 0.00 0.00 93 1021.8
20260503052848 56 105 0.0 0.0 0.00 0.00 0.00 93 1021.9
20260503052345 56 107 0.0 0.0 0.00 0.00 0.00 93 1021.9
20260503051841 56 107 0.0 0.0 0.00 0.00 0.00 93 1022.2
20260503051338 56 107 0.0 0.0 0.00 0.00 0.00 93 1022.0
20260503050835 56 107 0.0 0.0 0.00 0.00 0.00 93 1022.1
20260503050331 56 107 0.0 0.0 0.00 0.00 0.00 93 1022.1
20260503045829 56 107 0.0 0.0 0.00 0.00 0.00 93 1022.0
20260503045326 56 107 0.0 0.0 0.00 0.00 0.00 93 1021.9
20260503044822 56 107 0.0 0.0 0.00 0.00 0.00 93 1021.9